"Pseudo-MPEC" for P10OKP7

Created 2019 Jun 15 19:08:14 UT using Find_Orb

Click here for an explanation of pseudo-MPECs

 
 Astrometry: 
     P10OKP7  C2019 04 07T`L0g+SZKkDk.+/Qk)-)UyjSbsBLoP3B:T'mhR92wGax4,(u57tYF51
     P10OKP7  C2019 04 07kmB5n3?[/YjkMXwfEug=6@QBH'29Uk*Hg]66VKy6;DcNB)sqJ6-jF51
     P10OKP7  C2019 04 07A)lH;,$ajL(md]@j6V_[s3WV,N[v5Kf4$DOnqW;5vx/@5@%J99'JF51
     P10OKP7  C2019 04 07y/+vDV:bNZP,%%!P]p?YoNS^nXbbKi2Kxq!v'o^V)ibn=lQ41d]`F51
     P10OKP7  C2019 04 09=u.P]p!\XS[T5*lE4[avPYi[GT*nqY#GM#B0]T=?.,IQ769hfL1!F51
     P10OKP7  C2019 04 09se!#ZMAstrometry\]tRdQNt5(l.jR1D*IZwkIBgWyG*5^YAI0owF51
     P10OKP7  C2019 04 09EQC-Av?eBFW3FiVZ!$jw1e.Zc-1,;,(4qb0q?wrEfN!B.MF=$W\2F51
     P10OKP7  C2019 04 097yt,i.h#ZQgQJd#J*RK:('ANxF`42w4,@ubbRBm?N]QBA]mHRuOsF51
     P10OKP7  C2019 04 09$'sd;,;O8oIhXf@Y:(QQ4ssqAAIpJwt+p8TPo#S][?W6SKr^#,2PF51
     P10OKP7  C2019 04 09$SK'#OXR4redacted;Oj4+xr77ko'xt]w`I'V,FY[$1o-V*9THm0F51
     P10OKP7  C2019 05 27t_@.)(]UZD$;bZHbn)A%SN5]Aj_iT4(VT6:rw(Ru,n8A5yunR$*iF52
     P10OKP7  C2019 05 27yNOh(=p9q`SCY*K1Zclick2YrSuLBuH6'LtqKHFn+=D4%Q18[]IoF52
     P10OKP7  C2019 05 27o]g2nD-Z5BU`GhereW`ob#4`7m7+M_.B.kd0XX.eNCTJx:q/gLWUF52
     P10OKP7  C2019 06 052HHJK-Q0oss;7]sol8w5mGgasP`s;5B=9G$jWsfor=*4UB-$4V#mF51
     P10OKP7  C2019 06 05#D.vt$6wR+fN%uI,f7explanationhu3vT!v0$Cg+Pd.M:mDr?CAF51
     P10OKP7  C2019 06 05Kwbe]O;kPkU.hwdN;;8#B.=6R4.K1*vblmM)viO'4*i#'TQvoi7QF51
     P10OKP7  C2019 06 05qM)_6TJ@*2fQ`o()D/=)Rt0,KaUn;Gy2t(Ld6v*u/JLI@TR=I!pxF51
     P10OKP7 KC2019 06 06fV#M2rhYqT-TrDWV?f'li!u?xuhvaD4VLV5wdwQEoPKoBR;1S,M4691
     P10OKP7 KC2019 06 06*H[cF[QW--F*KC6p8fr[nJQ%Xme+[J-]+p]f!:MbaW3*G*w3VoI%691
     P10OKP7 ^C2019 06 07.36424314 03 03.136+20 11 41.21   ~67Jq 21.81GVNEOCP568
     P10OKP7 ^C2019 06 07.36542714 03 03.097+20 11 40.57   ~67Jq 21.79GVNEOCP568

Station data:
(568) Mauna Kea  (N19.826116 W155.472200)  US/Hawaii.
(691) Steward Observatory, Kitt Peak - Spacewatch  (N31.962174 W111.600327)
   US/Arizona.  Observer J. V. Scotti. 0.9-m f/3 reflector + CCD.
(F51) Pan-STARRS 1, Haleakala  (N20.707235 W156.255910)  US/Hawaii.
   Observers N. Primak, A. Schultz, S. Watters, J. Thiel, T. Goggia. Measurer
   PS1 Science Consortium. 1.8-m Ritchey-Chrétien + CCD.
(F52) Pan-STARRS 2, Haleakala  (N20.707384 W156.255910)  US/Hawaii. 1.8-m
   Ritchey-Chrétien + CCD.

Orbital elements:  P10OKP7
   Perihelion 2020 Oct 1.213217 +/- 0.142 TT =  5:07:01 (JD 2459123.713217)
Epoch 2019 Jun  7.0 TT = JDT 2458641.5   Earth MOID: 0.9837   AutoNEOCP
M 247.40352416 +/- 0.048            (J2000 ecliptic)
n   0.23349935 +/- 3.38e-5          Peri.  265.15695 +/- 0.027
a   2.61183411 +/- 0.000252         Node    89.77072 +/- 0.0051
e   0.3246657 +/- 6.9e-5            Incl.   29.39414 +/- 0.0018
P   4.22                   H 16.9   G  0.15   U  5.9  
q 1.76386093 +/- 8.58e-5    Q 3.45980729 +/- 0.0005
From 21 observations 2019 Apr. 7-June 7; mean residual 0".18
Residuals in arcseconds: 
190407 F51  .01-  .01-    190409 F51  .24+  .00     190605 F51  .20+  .04-    
190407 F51  .05+  .06-    190409 F51  .10-  .01+    190605 F51  .01+  .10-    
190407 F51  .09+  .02-    190409 F51  .14-  .06-    190605 F51  .22+  .20-    
190407 F51  .01+  .05-    190527 F52  .05-  .17-    190606 691  .74-  .24+    
190409 F51  .07-  .13+    190527 F52  .05+  .03-    190606 691  .01+  .45+    
190409 F51  .12+  .02-    190527 F52  .01+  .19+    190607 568  .13+  .16-    
190409 F51  .23-  .10+    190605 F51  .19+  .12-    190607 568  .13+  .16-    

Ephemerides (geocentric):
Date (UTC) HH   RA              Dec         delta   r     elong  mag " sig PA
---- -- -- --  -------------   -----------  ------ ------ -----  --- ---- ---
2019 06 15 19  13 59 24.042   +18 50 07.98  2.5693 3.1062 112.7 22.3 .412 164
2019 06 15 20  13 59 23.193   +18 49 42.19  2.5697 3.1061 112.7 22.3 .414 164
2019 06 15 21  13 59 22.346   +18 49 16.39  2.5700 3.1060 112.6 22.3 .416 164
2019 06 15 22  13 59 21.501   +18 48 50.58  2.5704 3.1059 112.6 22.3 .417 164
2019 06 15 23  13 59 20.658   +18 48 24.76  2.5707 3.1058 112.6 22.3 .419 164
2019 06 16 00  13 59 19.818   +18 47 58.92  2.5711 3.1057 112.5 22.3 .421 164
2019 06 16 01  13 59 18.981   +18 47 33.06  2.5714 3.1056 112.5 22.3 .423 164
2019 06 16 02  13 59 18.145   +18 47 07.20  2.5718 3.1055 112.5 22.3 .424 164
2019 06 16 03  13 59 17.312   +18 46 41.31  2.5721 3.1054 112.5 22.3 .426 163
2019 06 16 04  13 59 16.481   +18 46 15.42  2.5725 3.1053 112.4 22.3 .428 163
2019 06 16 05  13 59 15.652   +18 45 49.51  2.5729 3.1052 112.4 22.3 .430 163
2019 06 16 06  13 59 14.826   +18 45 23.58  2.5732 3.1051 112.4 22.3 .431 163
2019 06 16 07  13 59 14.002   +18 44 57.64  2.5736 3.1050 112.3 22.3 .433 163
2019 06 16 08  13 59 13.181   +18 44 31.69  2.5739 3.1049 112.3 22.3 .435 163
2019 06 16 09  13 59 12.361   +18 44 05.73  2.5743 3.1048 112.3 22.3 .437 163
2019 06 16 10  13 59 11.544   +18 43 39.74  2.5746 3.1047 112.2 22.3 .438 163
2019 06 16 11  13 59 10.730   +18 43 13.75  2.5750 3.1046 112.2 22.3 .440 163
2019 06 16 12  13 59 09.917   +18 42 47.74  2.5753 3.1045 112.2 22.3 .442 163
2019 06 16 13  13 59 09.107   +18 42 21.72  2.5757 3.1044 112.1 22.3 .444 163
2019 06 16 14  13 59 08.299   +18 41 55.68  2.5760 3.1043 112.1 22.3 .445 163
2019 06 16 15  13 59 07.494   +18 41 29.63  2.5764 3.1042 112.1 22.3 .447 163
2019 06 16 16  13 59 06.691   +18 41 03.57  2.5768 3.1041 112.0 22.3 .449 163
2019 06 16 17  13 59 05.890   +18 40 37.49  2.5771 3.1040 112.0 22.3 .451 163
2019 06 16 18  13 59 05.091   +18 40 11.40  2.5775 3.1039 112.0 22.3 .452 163
2019 06 16 19  13 59 04.295   +18 39 45.30  2.5778 3.1038 111.9 22.3 .454 163
2019 06 16 20  13 59 03.501   +18 39 19.18  2.5782 3.1037 111.9 22.3 .456 163
2019 06 16 21  13 59 02.710   +18 38 53.04  2.5785 3.1036 111.9 22.3 .458 163
2019 06 16 22  13 59 01.920   +18 38 26.90  2.5789 3.1035 111.8 22.3 .459 163
2019 06 16 23  13 59 01.133   +18 38 00.74  2.5793 3.1034 111.8 22.3 .461 163
2019 06 17 00  13 59 00.349   +18 37 34.56  2.5796 3.1033 111.8 22.3 .463 163
2019 06 17 01  13 58 59.566   +18 37 08.37  2.5800 3.1032 111.7 22.3 .465 163
2019 06 17 02  13 58 58.786   +18 36 42.17  2.5803 3.1031 111.7 22.3 .467 163
2019 06 17 03  13 58 58.008   +18 36 15.96  2.5807 3.1030 111.7 22.3 .468 163
2019 06 17 04  13 58 57.233   +18 35 49.73  2.5811 3.1029 111.6 22.3 .470 163
2019 06 17 05  13 58 56.460   +18 35 23.49  2.5814 3.1028 111.6 22.3 .472 163
2019 06 17 06  13 58 55.689   +18 34 57.23  2.5818 3.1027 111.6 22.3 .474 163
2019 06 17 07  13 58 54.920   +18 34 30.96  2.5821 3.1026 111.5 22.3 .475 163
2019 06 17 08  13 58 54.154   +18 34 04.68  2.5825 3.1025 111.5 22.3 .477 163
2019 06 17 09  13 58 53.390   +18 33 38.38  2.5828 3.1024 111.5 22.3 .479 163
2019 06 17 10  13 58 52.629   +18 33 12.07  2.5832 3.1023 111.5 22.3 .481 163
2019 06 17 11  13 58 51.869   +18 32 45.75  2.5836 3.1022 111.4 22.3 .483 163
2019 06 17 12  13 58 51.112   +18 32 19.41  2.5839 3.1021 111.4 22.3 .484 163
2019 06 17 13  13 58 50.358   +18 31 53.06  2.5843 3.1020 111.4 22.3 .486 163
2019 06 17 14  13 58 49.605   +18 31 26.70  2.5846 3.1019 111.3 22.3 .488 163
2019 06 17 15  13 58 48.855   +18 31 00.32  2.5850 3.1018 111.3 22.3 .490 163
2019 06 17 16  13 58 48.108   +18 30 33.93  2.5854 3.1017 111.3 22.3 .492 163
2019 06 17 17  13 58 47.362   +18 30 07.52  2.5857 3.1017 111.2 22.3 .493 163
2019 06 17 18  13 58 46.619   +18 29 41.11  2.5861 3.1016 111.2 22.3 .495 163